Search for airport 
image banner adimage banner adimage banner ad
image banner ad

NV67 - Pilot Creek Ranches

Located in Montello, United States

ICAO - NV67, IATA -

Data provided by Airmate  

General information

Coordinates: N41°6'57" W114°6'49"
Elevation is 4980 feet MSL.
Magnetic variation is 15° East
View others Airports in Nevada

Operational data

Special qualification required
Current time UTC:
Current local time:
Weather at : KENV - Wendover ( 45 km )
METAR: KENV 130956Z AUTO 00000KT 10SM CLR 16/M07 A3001 RMK AO2 SLP123 T01561072
TAF: KENV 130520Z 1306/1406 VRB05KT P6SM SKC FM131600 11008KT P6SM SKC FM132100 18015G25KT P6SM SKC FM140300 VRB05KT P6SM SKC
View NOTAMs / SUP AIP / TFR affecting this airport [VIEW]
Communications frequencies: [VIEW]

Runways:

RWY identifierQFULength (ft)Width (ft)SurfaceLDA (ft)
07200025EARTH
25200025EARTH

Airport contact information

Address: Montello United States

Satellite view of NV67